Portada
METAR-TAF:

METAR-TAF

Aeropuertos :

Murcia, España

Base Aérea de Alcantarilla

latitud: 37-57N, longitud: 001-14W, altitud: 75 m

Observación

El informe se hizo hace 4 horas y 41 minutos, a las 18:00 UTC
Viento 11 kt del sureste, variando entre este-sureste y sur
Temperatura 31°C
Humedad 43%
Presión 1013 hPa
Visibilidad 10 km o más
sin nubes por debajo de 1500 m y sin presencia de cumulonimbus.

METAR: LERI 221800Z 14011KT 110V170 CAVOK 31/17 Q1013 NOSIG

Hora: 00:41 (22:41 UTC)

Pronóstico

El informe se hizo hace 8 horas y 41 minutos, a las 14:00 UTC
Pronóstico válido del 22 a las 15 UTC al 22 a las 24 UTC
Viento 9 kt del este-sureste
Visibilidad 10 km o más
sin nubes por debajo de 1500 m y sin presencia de cumulonimbus.

TAF: LERI 221400Z 2215/2224 12009KT CAVOK

Observaciones y pronósticos meteorológicos de más de 4000 aeropuertos (mensajes METAR y TAF).

Los puntos amarillos y rojos representan las estaciones disponibles.

Ponga el ratón en el punto deseado para ver el nombre de la estación.

Haga clic para ver las observaciones y los pronósticos meteorológicos.

Para cambiar el mapa : haga clic en los botones verdes con una cruz de color negro para hacer un zoom, en el botón verde con un guión para alejar o en las flechas verdes para mapas adyacentes.


METAR-TAF: